Home   Weather   Hommelvik   Past weeks

Flag for Norway Past Weather in Hommelvik, Norway — Yesterday and Last 2 Weeks

Now
47 °F

Cool.


Feels Like: 44 °F
Forecast: 48 / 61 °F
Wind: 5 mph from Southeast

Location: Trondheim / Vaernes

Current Time: Sep 27, 2016 at 12:40:21 AM

Latest Report: Sep 26, 2016 at 11:00 PM


Visibility: 22 mi

Pressure: 30.16 "Hg

Humidity: 94%

Dew Point: 45 °F

Location of HommelvikLocation

Past Weather in Hommelvik — Graph

°F

Hommelvik Temperature Yesterday

Maximum temperature yesterday: 64 °F (at 2:00 AM)
Minimum temperature yesterday: 47 °F (at 11:00 PM)
Average temperature yesterday: 58 °F

High & Low Weather Summary for the Past Weeks

 TemperatureHumidityPressure
High71 °F (Sep 25, 4:00 PM)99% (Sep 18, 7:00 AM)30.21 "Hg (Sep 18, 7:00 AM)
Low46 °F (Sep 13, 6:00 AM)43% (Sep 25, 4:00 PM)29.85 "Hg (Sep 25, 3:00 AM)
Average56 °F84%30.07 "Hg
* Reported Sep 11 11:00 PM — Sep 26 11:00 PM, Hommelvik, Weather by CustomWeather, © 2016

Note: Actual official high and low records may vary slightly from our data, if they occured in-between our weather recording intervals... More about our weather records

Advertising

Hommelvik Weather History for the Previous 24 Hours

Scroll right to see more
 ConditionsComfort  
Time TempWeatherWind HumidityBarometerVisibility
11:00 PM
Mon, Sep 26
47 °FCool.5 mph94%30.16 "Hg22 mi
10:00 PM48 °FPassing clouds.2 mph92%30.15 "Hg19 mi
9:00 PM49 °FCool.2 mph90%30.15 "Hg28 mi
8:00 PMN/AN/AN/AN/A31 mi
7:00 PM55 °FCool.5 mph75%30.12 "Hg31 mi
6:00 PM58 °FCool.3 mph70%30.11 "Hg31 mi
4:00 PM58 °FScattered clouds.5 mph68%30.09 "Hg28 mi
3:00 PM58 °FCool.2 mph69%30.08 "Hg28 mi
2:00 PM57 °FOvercast.3 mph74%30.07 "Hg25 mi
1:00 PM55 °FOvercast.9 mph79%30.06 "Hg25 mi
12:00 PM57 °FRain showers. Overcast.No wind86%30.03 "Hg11 mi
11:00 AMN/AOvercast.N/AN/AN/A14 mi
10:00 AM57 °FOvercast.1 mph87%30.01 "Hg12 mi
9:00 AM58 °FOvercast.3 mph82%30.00 "Hg12 mi
8:00 AM58 °FScattered clouds.7 mph79%29.99 "Hg15 mi
7:00 AM60 °FClear.2 mph61%29.96 "Hg28 mi
6:00 AM61 °FClear.3 mph58%29.92 "Hg31 mi
5:00 AM62 °FClear.9 mph57%29.90 "Hg31 mi
4:00 AM63 °FClear.3 mph54%29.90 "Hg31 mi
3:00 AM63 °FClear.7 mph52%29.89 "Hg31 mi
2:00 AM64 °FClear.10 mph53%29.88 "Hg31 mi
1:00 AM63 °FClear.8 mph56%29.90 "Hg31 mi
12:00 AM63 °FClear.6 mph55%29.90 "Hg31 mi
Weather by CustomWeather, © 2016

See weather overviewHow to use our weather pages